Location: Bittkow
(50.3000°N, 19.0000°E)
Time: 02:22:17
(UTC+00:00)

Meteor 1-27 Rocket - Pass Details

Date: 19 September 2020
Orbit: 830 x 910 km, 81.3° (Epoch: 30 October)

Event Time Altitude Azimuth Distance (km) Brightness Sun altitude
Rises 03:40:09 0° 197° (SSW) 3,526 6.6 -8.1°
Reaches altitude 10° 03:42:37 10° 200° (SSW) 2,591 5.9 -7.7°
Maximum altitude 03:48:32 71° 284° (WNW) 965 3.9 -6.8°
Drops below altitude 10° 03:54:28 10° 9° (N) 2,594 6.5 -5.9°
Sets 03:56:57 0° 12° (NNE) 3,532 7.2 -5.5°
